Year,Month,Day,Hour,Minute,Value (Times are PST for temperature in C)
2016,09,22,00,00,11.20
2016,09,22,00,01,11.20
2016,09,22,00,02,11.10
2016,09,22,00,03,11.10
2016,09,22,00,04,11.10
2016,09,22,00,05,11.10
2016,09,22,00,06,11.10
2016,09,22,00,07,11.00
2016,09,22,00,08,11.00
2016,09,22,00,09,11.00
2016,09,22,00,10,10.90
2016,09,22,00,11,10.90
2016,09,22,00,12,10.90
2016,09,22,00,13,10.90
2016,09,22,00,14,10.90
2016,09,22,00,15,10.90
2016,09,22,00,16,10.90
2016,09,22,00,17,10.80
2016,09,22,00,18,10.80
2016,09,22,00,19,10.80
2016,09,22,00,20,10.80
2016,09,22,00,21,10.80
2016,09,22,00,22,10.80
2016,09,22,00,23,10.70
2016,09,22,00,24,10.70
2016,09,22,00,25,10.70
2016,09,22,00,26,10.70
2016,09,22,00,27,10.70
2016,09,22,00,28,10.70
2016,09,22,00,29,10.70
2016,09,22,00,30,10.70
2016,09,22,00,31,10.70
2016,09,22,00,32,10.70
2016,09,22,00,33,10.70
2016,09,22,00,34,10.70
2016,09,22,00,35,10.70
2016,09,22,00,36,10.70
2016,09,22,00,37,10.70
2016,09,22,00,38,10.70
2016,09,22,00,39,10.70
2016,09,22,00,40,10.70
2016,09,22,00,41,10.70
2016,09,22,00,42,10.70
2016,09,22,00,43,10.70
2016,09,22,00,44,10.60
2016,09,22,00,45,10.60
2016,09,22,00,46,10.60
2016,09,22,00,47,10.60
2016,09,22,00,48,10.60
2016,09,22,00,49,10.60
2016,09,22,00,50,10.60
2016,09,22,00,51,10.50
2016,09,22,00,52,10.50
2016,09,22,00,53,10.50
2016,09,22,00,54,10.50
2016,09,22,00,55,10.40
2016,09,22,00,56,10.40
2016,09,22,00,57,10.40
2016,09,22,00,58,10.40
2016,09,22,00,59,10.40
2016,09,22,01,00,10.40
2016,09,22,01,01,10.40
2016,09,22,01,02,10.30
2016,09,22,01,03,10.30
2016,09,22,01,04,10.30
2016,09,22,01,05,10.30
2016,09,22,01,06,10.30
2016,09,22,01,07,10.30
2016,09,22,01,08,10.30
2016,09,22,01,09,10.30
2016,09,22,01,10,10.30
2016,09,22,01,11,10.20
2016,09,22,01,12,10.20
2016,09,22,01,13,10.20
2016,09,22,01,14,10.20
2016,09,22,01,15,10.20
2016,09,22,01,16,10.20
2016,09,22,01,17,10.20
2016,09,22,01,18,10.20
2016,09,22,01,19,10.20
2016,09,22,01,20,10.20
2016,09,22,01,21,10.20
2016,09,22,01,22,10.20
2016,09,22,01,23,10.20
2016,09,22,01,24,10.20
2016,09,22,01,25,10.20
2016,09,22,01,26,10.20
2016,09,22,01,27,10.20
2016,09,22,01,28,10.20
2016,09,22,01,29,10.20
2016,09,22,01,30,10.20
2016,09,22,01,31,10.20
2016,09,22,01,32,10.20
2016,09,22,01,33,10.10
2016,09,22,01,34,10.10
2016,09,22,01,35,10.10
2016,09,22,01,36,10.10
2016,09,22,01,37,10.10
2016,09,22,01,38,10.10
2016,09,22,01,39,10.10
2016,09,22,01,40,10.10
2016,09,22,01,41,10.10
2016,09,22,01,42,10.10
2016,09,22,01,43,10.10
2016,09,22,01,44,10.20
2016,09,22,01,45,10.20
2016,09,22,01,46,10.20
2016,09,22,01,47,10.20
2016,09,22,01,48,10.30
2016,09,22,01,49,10.30
2016,09,22,01,50,10.30
2016,09,22,01,51,10.40
2016,09,22,01,52,10.40
2016,09,22,01,53,10.40
2016,09,22,01,54,10.40
2016,09,22,01,55,10.40
2016,09,22,01,56,10.40
2016,09,22,01,57,10.40
2016,09,22,01,58,10.40
2016,09,22,01,59,10.40
2016,09,22,02,00,10.40
2016,09,22,02,01,10.40
2016,09,22,02,02,10.40
2016,09,22,02,03,10.40
2016,09,22,02,04,10.30
2016,09,22,02,05,10.30
2016,09,22,02,06,10.30
2016,09,22,02,07,10.30
2016,09,22,02,08,10.20
2016,09,22,02,09,10.20
2016,09,22,02,10,10.20
2016,09,22,02,11,10.20
2016,09,22,02,12,10.10
2016,09,22,02,13,10.10
2016,09,22,02,14,10.10
2016,09,22,02,15,10.00
2016,09,22,02,16,10.00
2016,09,22,02,17,10.00
2016,09,22,02,18,9.90
2016,09,22,02,19,9.90
2016,09,22,02,20,9.90
2016,09,22,02,21,9.90
2016,09,22,02,22,9.90
2016,09,22,02,23,9.90
2016,09,22,02,24,9.90
2016,09,22,02,25,9.90
2016,09,22,02,26,9.90
2016,09,22,02,27,9.90
2016,09,22,02,28,9.80
2016,09,22,02,29,9.80
2016,09,22,02,30,9.80
2016,09,22,02,31,9.80
2016,09,22,02,32,9.80
2016,09,22,02,33,9.80
2016,09,22,02,34,9.70
2016,09,22,02,35,9.70
2016,09,22,02,36,9.70
2016,09,22,02,37,9.70
2016,09,22,02,38,9.60
2016,09,22,02,39,9.60
2016,09,22,02,40,9.60
2016,09,22,02,41,9.60
2016,09,22,02,42,9.60
2016,09,22,02,43,9.50
2016,09,22,02,44,9.50
2016,09,22,02,45,9.50
2016,09,22,02,46,9.50
2016,09,22,02,47,9.40
2016,09,22,02,48,9.40
2016,09,22,02,49,9.40
2016,09,22,02,50,9.40
2016,09,22,02,51,9.40
2016,09,22,02,52,9.40
2016,09,22,02,53,9.30
2016,09,22,02,54,9.30
2016,09,22,02,55,9.30
2016,09,22,02,56,9.30
2016,09,22,02,57,9.30
2016,09,22,02,58,9.30
2016,09,22,02,59,9.30
2016,09,22,03,00,9.20
2016,09,22,03,01,9.20
2016,09,22,03,02,9.20
2016,09,22,03,03,9.20
2016,09,22,03,04,9.20
2016,09,22,03,05,9.20
2016,09,22,03,06,9.20
2016,09,22,03,07,9.20
2016,09,22,03,08,9.20
2016,09,22,03,09,9.20
2016,09,22,03,10,9.30
2016,09,22,03,11,9.30
2016,09,22,03,12,9.30
2016,09,22,03,13,9.30
2016,09,22,03,14,9.30
2016,09,22,03,15,9.40
2016,09,22,03,16,9.40
2016,09,22,03,17,9.40
2016,09,22,03,18,9.40
2016,09,22,03,19,9.50
2016,09,22,03,20,9.50
2016,09,22,03,21,9.60
2016,09,22,03,22,9.60
2016,09,22,03,23,9.60
2016,09,22,03,24,9.60
2016,09,22,03,25,9.60
2016,09,22,03,26,9.60
2016,09,22,03,27,9.60
2016,09,22,03,28,9.70
2016,09,22,03,29,9.70
2016,09,22,03,30,9.70
2016,09,22,03,31,9.70
2016,09,22,03,32,9.70
2016,09,22,03,33,9.70
2016,09,22,03,34,9.70
2016,09,22,03,35,9.70
2016,09,22,03,36,9.70
2016,09,22,03,37,9.70
2016,09,22,03,38,9.60
2016,09,22,03,39,9.60
2016,09,22,03,40,9.60
2016,09,22,03,41,9.60
2016,09,22,03,42,9.60
2016,09,22,03,43,9.60
2016,09,22,03,44,9.60
2016,09,22,03,45,9.50
2016,09,22,03,46,9.50
2016,09,22,03,47,9.50
2016,09,22,03,48,9.40
2016,09,22,03,49,9.40
2016,09,22,03,50,9.40
2016,09,22,03,51,9.40
2016,09,22,03,52,9.30
2016,09,22,03,53,9.30
2016,09,22,03,54,9.30
2016,09,22,03,55,9.30
2016,09,22,03,56,9.20
2016,09,22,03,57,9.20
2016,09,22,03,58,9.20
2016,09,22,03,59,9.20
2016,09,22,04,00,9.20
2016,09,22,04,01,9.20
2016,09,22,04,02,9.20
2016,09,22,04,03,9.20
2016,09,22,04,04,9.10
2016,09,22,04,05,9.10
2016,09,22,04,06,9.10
2016,09,22,04,07,9.10
2016,09,22,04,08,9.00
2016,09,22,04,09,9.00
2016,09,22,04,10,9.00
2016,09,22,04,11,9.00
2016,09,22,04,12,8.90
2016,09,22,04,13,8.90
2016,09,22,04,14,8.90
2016,09,22,04,15,8.90
2016,09,22,04,16,8.90
2016,09,22,04,17,8.90
2016,09,22,04,18,8.90
2016,09,22,04,19,8.90
2016,09,22,04,20,8.90
2016,09,22,04,21,8.90
2016,09,22,04,22,8.90
2016,09,22,04,23,8.90
2016,09,22,04,24,8.90
2016,09,22,04,25,8.90
2016,09,22,04,26,8.90
2016,09,22,04,27,8.90
2016,09,22,04,28,8.90
2016,09,22,04,29,8.90
2016,09,22,04,30,8.90
2016,09,22,04,31,8.90
2016,09,22,04,32,8.90
2016,09,22,04,33,8.90
2016,09,22,04,34,8.90
2016,09,22,04,35,8.90
2016,09,22,04,36,8.90
2016,09,22,04,37,8.90
2016,09,22,04,38,8.90
2016,09,22,04,39,8.90
2016,09,22,04,40,8.80
2016,09,22,04,41,8.80
2016,09,22,04,42,8.80
2016,09,22,04,43,8.80
2016,09,22,04,44,8.70
2016,09,22,04,45,8.70
2016,09,22,04,46,8.70
2016,09,22,04,47,8.70
2016,09,22,04,48,8.70
2016,09,22,04,49,8.70
2016,09,22,04,50,8.60
2016,09,22,04,51,8.60
2016,09,22,04,52,8.60
2016,09,22,04,53,8.60
2016,09,22,04,54,8.60
2016,09,22,04,55,8.50
2016,09,22,04,56,8.50
2016,09,22,04,57,8.50
2016,09,22,04,58,8.40
2016,09,22,04,59,8.40
2016,09,22,05,00,8.40
2016,09,22,05,01,8.40
2016,09,22,05,02,8.30
2016,09,22,05,03,8.30
2016,09,22,05,04,8.30
2016,09,22,05,05,8.30
2016,09,22,05,06,8.30
2016,09,22,05,07,8.30
2016,09,22,05,08,8.30
2016,09,22,05,09,8.30
2016,09,22,05,10,8.30
2016,09,22,05,11,8.30
2016,09,22,05,12,8.30
2016,09,22,05,13,8.30
2016,09,22,05,14,8.30
2016,09,22,05,15,8.30
2016,09,22,05,16,8.30
2016,09,22,05,17,8.30
2016,09,22,05,18,8.30
2016,09,22,05,19,8.30
2016,09,22,05,20,8.30
2016,09,22,05,21,8.30
2016,09,22,05,22,8.30
2016,09,22,05,23,8.30
2016,09,22,05,24,8.30
2016,09,22,05,25,8.30
2016,09,22,05,26,8.30
2016,09,22,05,27,8.30
2016,09,22,05,28,8.30
2016,09,22,05,29,8.40
2016,09,22,05,30,8.40
2016,09,22,05,31,8.40
2016,09,22,05,32,8.40
2016,09,22,05,33,8.40
2016,09,22,05,34,8.40
2016,09,22,05,35,8.30
2016,09,22,05,36,8.30
2016,09,22,05,37,8.30
2016,09,22,05,38,8.30
2016,09,22,05,39,8.30
2016,09,22,05,40,8.30
2016,09,22,05,41,8.30
2016,09,22,05,42,8.30
2016,09,22,05,43,8.30
2016,09,22,05,44,8.30
2016,09,22,05,45,8.30
2016,09,22,05,46,8.30
2016,09,22,05,47,8.30
2016,09,22,05,48,8.30
2016,09,22,05,49,8.30
2016,09,22,05,50,8.30
2016,09,22,05,51,8.30
2016,09,22,05,52,8.30
2016,09,22,05,53,8.30
2016,09,22,05,54,8.30
2016,09,22,05,55,8.30
2016,09,22,05,56,8.30
2016,09,22,05,57,8.30
2016,09,22,05,58,8.30
2016,09,22,05,59,8.30
2016,09,22,06,00,8.30
2016,09,22,06,01,8.30
2016,09,22,06,02,8.30
2016,09,22,06,03,8.30
2016,09,22,06,04,8.30
2016,09,22,06,05,8.40
2016,09,22,06,06,8.40
2016,09,22,06,07,8.40
2016,09,22,06,08,8.40
2016,09,22,06,09,8.40
2016,09,22,06,10,8.40
2016,09,22,06,11,8.50
2016,09,22,06,12,8.50
2016,09,22,06,13,8.50
2016,09,22,06,14,8.50
2016,09,22,06,15,8.60
2016,09,22,06,16,8.60
2016,09,22,06,17,8.60
2016,09,22,06,18,8.60
2016,09,22,06,19,8.60
2016,09,22,06,20,8.60
2016,09,22,06,21,8.60
2016,09,22,06,22,8.60
2016,09,22,06,23,8.60
2016,09,22,06,24,8.60
2016,09,22,06,25,8.50
2016,09,22,06,26,8.50
2016,09,22,06,27,8.50
2016,09,22,06,28,8.50
2016,09,22,06,29,8.40
2016,09,22,06,30,8.40
2016,09,22,06,31,8.40
2016,09,22,06,32,8.40
2016,09,22,06,33,8.40
2016,09,22,06,34,8.40
2016,09,22,06,35,8.30
2016,09,22,06,36,8.30
2016,09,22,06,37,8.30
2016,09,22,06,38,8.30
2016,09,22,06,39,8.30
2016,09,22,06,40,8.30
2016,09,22,06,41,8.30
2016,09,22,06,42,8.20
2016,09,22,06,43,8.20
2016,09,22,06,44,8.20
2016,09,22,06,45,8.20
2016,09,22,06,46,8.20
2016,09,22,06,47,8.20
2016,09,22,06,48,8.10
2016,09,22,06,49,8.10
2016,09,22,06,50,8.10
2016,09,22,06,51,8.10
2016,09,22,06,52,8.10
2016,09,22,06,53,8.10
2016,09,22,06,54,8.10
2016,09,22,06,55,8.10
2016,09,22,06,56,8.10
2016,09,22,06,57,8.10
2016,09,22,06,58,8.10
2016,09,22,06,59,8.10
2016,09,22,07,00,8.00
2016,09,22,07,01,8.00
2016,09,22,07,02,8.00
2016,09,22,07,03,8.00
2016,09,22,07,04,8.00
2016,09,22,07,05,8.00
2016,09,22,07,06,8.00
2016,09,22,07,07,8.00
2016,09,22,07,08,8.00
2016,09,22,07,09,8.00
2016,09,22,07,10,8.00
2016,09,22,07,11,8.00
2016,09,22,07,12,8.00
2016,09,22,07,13,8.00
2016,09,22,07,14,8.00
2016,09,22,07,15,8.00
2016,09,22,07,16,8.10
2016,09,22,07,17,8.10
2016,09,22,07,18,8.10
2016,09,22,07,19,8.10
2016,09,22,07,20,8.20
2016,09,22,07,21,8.20
2016,09,22,07,22,8.20
2016,09,22,07,23,8.20
2016,09,22,07,24,8.20
2016,09,22,07,25,8.20
2016,09,22,07,26,8.20
2016,09,22,07,27,8.20
2016,09,22,07,28,8.20
2016,09,22,07,29,8.20
2016,09,22,07,30,8.30
2016,09,22,07,31,8.30
2016,09,22,07,32,8.30
2016,09,22,07,33,8.30
2016,09,22,07,34,8.30
2016,09,22,07,35,8.30
2016,09,22,07,36,8.30
2016,09,22,07,37,8.30
2016,09,22,07,38,8.30
2016,09,22,07,39,8.30
2016,09,22,07,40,8.30
2016,09,22,07,41,8.30
2016,09,22,07,42,8.30
2016,09,22,07,43,8.40
2016,09,22,07,44,8.40
2016,09,22,07,45,8.40
2016,09,22,07,46,8.40
2016,09,22,07,47,8.40
2016,09,22,07,48,8.40
2016,09,22,07,49,8.40
2016,09,22,07,50,8.40
2016,09,22,07,51,8.50
2016,09,22,07,52,8.50
2016,09,22,07,53,8.50
2016,09,22,07,54,8.60
2016,09,22,07,55,8.60
2016,09,22,07,56,8.60
2016,09,22,07,57,8.60
2016,09,22,07,58,8.70
2016,09,22,07,59,8.70
2016,09,22,08,00,8.70
2016,09,22,08,01,8.80
2016,09,22,08,02,8.80
2016,09,22,08,03,8.90
2016,09,22,08,04,8.90
2016,09,22,08,05,9.00
2016,09,22,08,06,9.00
2016,09,22,08,07,9.10
2016,09,22,08,08,9.20
2016,09,22,08,09,9.30
2016,09,22,08,10,9.30
2016,09,22,08,11,9.40
2016,09,22,08,12,9.50
2016,09,22,08,13,9.60
2016,09,22,08,14,9.70
2016,09,22,08,15,9.70
2016,09,22,08,16,9.80
2016,09,22,08,17,9.90
2016,09,22,08,18,9.90
2016,09,22,08,19,10.00
2016,09,22,08,20,10.10
2016,09,22,08,21,10.20
2016,09,22,08,22,10.20
2016,09,22,08,23,10.30
2016,09,22,08,24,10.40
2016,09,22,08,25,10.50
2016,09,22,08,26,10.60
2016,09,22,08,27,10.70
2016,09,22,08,28,10.80
2016,09,22,08,29,10.90
2016,09,22,08,30,10.90
2016,09,22,08,31,11.00
2016,09,22,08,32,11.10
2016,09,22,08,33,11.20
2016,09,22,08,34,11.20
2016,09,22,08,35,11.30
2016,09,22,08,36,11.30
2016,09,22,08,37,11.40
2016,09,22,08,38,11.40
2016,09,22,08,39,11.50
2016,09,22,08,40,11.60
2016,09,22,08,41,11.60
2016,09,22,08,42,11.70
2016,09,22,08,43,11.70
2016,09,22,08,44,11.80
2016,09,22,08,45,11.90
2016,09,22,08,46,12.00
2016,09,22,08,47,12.20
2016,09,22,08,48,12.30
2016,09,22,08,49,12.40
2016,09,22,08,50,12.60
2016,09,22,08,51,12.70
2016,09,22,08,52,12.80
2016,09,22,08,53,12.90
2016,09,22,08,54,13.10
2016,09,22,08,55,13.20
2016,09,22,08,56,13.30
2016,09,22,08,57,13.40
2016,09,22,08,58,13.50
2016,09,22,08,59,13.50
2016,09,22,09,00,13.60
2016,09,22,09,01,13.60
2016,09,22,09,02,13.60
2016,09,22,09,03,13.60
2016,09,22,09,04,13.60
2016,09,22,09,05,13.60
2016,09,22,09,06,13.60
2016,09,22,09,07,13.70
2016,09,22,09,08,13.70
2016,09,22,09,09,13.80
2016,09,22,09,10,13.90
2016,09,22,09,11,14.00
2016,09,22,09,12,14.00
2016,09,22,09,13,14.10
2016,09,22,09,14,14.20
2016,09,22,09,15,14.20
2016,09,22,09,16,14.30
2016,09,22,09,17,14.30
2016,09,22,09,18,14.40
2016,09,22,09,19,14.40
2016,09,22,09,20,14.50
2016,09,22,09,21,14.50
2016,09,22,09,22,14.60
2016,09,22,09,23,14.70
2016,09,22,09,24,14.70
2016,09,22,09,25,14.80
2016,09,22,09,26,14.80
2016,09,22,09,27,14.90
2016,09,22,09,28,15.00
2016,09,22,09,29,15.10
2016,09,22,09,30,15.10
2016,09,22,09,31,15.20
2016,09,22,09,32,15.30
2016,09,22,09,33,15.30
2016,09,22,09,34,15.40
2016,09,22,09,35,15.40
2016,09,22,09,36,15.50
2016,09,22,09,37,15.60
2016,09,22,09,38,15.60
2016,09,22,09,39,15.70
2016,09,22,09,40,15.70
2016,09,22,09,41,15.80
2016,09,22,09,42,15.80
2016,09,22,09,43,15.80
2016,09,22,09,44,15.80
2016,09,22,09,45,15.80
2016,09,22,09,46,15.80
2016,09,22,09,47,15.80
2016,09,22,09,48,15.80
2016,09,22,09,49,15.80
2016,09,22,09,50,15.80
2016,09,22,09,51,15.80
2016,09,22,09,52,15.80
2016,09,22,09,53,15.80
2016,09,22,09,54,15.80
2016,09,22,09,55,15.80
2016,09,22,09,56,15.70
2016,09,22,09,57,15.70
2016,09,22,09,58,15.70
2016,09,22,09,59,15.70
2016,09,22,10,00,15.70
2016,09,22,10,01,15.60
2016,09,22,10,02,15.60
2016,09,22,10,03,15.60
2016,09,22,10,04,15.60
2016,09,22,10,05,15.60
2016,09,22,10,06,15.70
2016,09,22,10,07,15.70
2016,09,22,10,08,15.70
2016,09,22,10,09,15.80
2016,09,22,10,10,15.80
2016,09,22,10,11,15.80
2016,09,22,10,12,15.80
2016,09,22,10,13,15.90
2016,09,22,10,14,15.90
2016,09,22,10,15,16.00
2016,09,22,10,16,16.00
2016,09,22,10,17,16.10
2016,09,22,10,18,16.10
2016,09,22,10,19,16.20
2016,09,22,10,20,16.20
2016,09,22,10,21,16.30
2016,09,22,10,22,16.30
2016,09,22,10,23,16.40
2016,09,22,10,24,16.40
2016,09,22,10,25,16.50
2016,09,22,10,26,16.50
2016,09,22,10,27,16.60
2016,09,22,10,28,16.60
2016,09,22,10,29,16.60
2016,09,22,10,30,16.60
2016,09,22,10,31,16.60
2016,09,22,10,32,16.60
2016,09,22,10,33,16.60
2016,09,22,10,34,16.50
2016,09,22,10,35,16.50
2016,09,22,10,36,16.50
2016,09,22,10,37,16.40
2016,09,22,10,38,16.40
2016,09,22,10,39,16.40
2016,09,22,10,40,16.40
2016,09,22,10,41,16.30
2016,09,22,10,42,16.30
2016,09,22,10,43,16.30
2016,09,22,10,44,16.30
2016,09,22,10,45,16.30
2016,09,22,10,46,16.30
2016,09,22,10,47,16.30
2016,09,22,10,48,16.30
2016,09,22,10,49,16.30
2016,09,22,10,50,16.30
2016,09,22,10,51,16.30
2016,09,22,10,52,16.30
2016,09,22,10,53,16.30
2016,09,22,10,54,16.30
2016,09,22,10,55,16.30
2016,09,22,10,56,16.30
2016,09,22,10,57,16.30
2016,09,22,10,58,16.20
2016,09,22,10,59,16.20
2016,09,22,11,00,16.20
2016,09,22,11,01,16.20
2016,09,22,11,02,16.30
2016,09,22,11,03,16.30
2016,09,22,11,04,16.30
2016,09,22,11,05,16.40
2016,09,22,11,06,16.40
2016,09,22,11,07,16.40
2016,09,22,11,08,16.40
2016,09,22,11,09,16.50
2016,09,22,11,10,16.50
2016,09,22,11,11,16.50
2016,09,22,11,12,16.50
2016,09,22,11,13,16.50
2016,09,22,11,14,16.60
2016,09,22,11,15,16.60
2016,09,22,11,16,16.70
2016,09,22,11,17,16.70
2016,09,22,11,18,16.70
2016,09,22,11,19,16.70
2016,09,22,11,20,16.70
2016,09,22,11,21,16.70
2016,09,22,11,22,16.70
2016,09,22,11,23,16.60
2016,09,22,11,24,16.60
2016,09,22,11,25,16.60
2016,09,22,11,26,16.50
2016,09,22,11,27,16.50
2016,09,22,11,28,16.50
2016,09,22,11,29,16.50
2016,09,22,11,30,16.50
2016,09,22,11,31,16.50
2016,09,22,11,32,16.50
2016,09,22,11,33,16.60
2016,09,22,11,34,16.60
2016,09,22,11,35,16.60
2016,09,22,11,36,16.60
2016,09,22,11,37,16.60
2016,09,22,11,38,16.70
2016,09,22,11,39,16.70
2016,09,22,11,40,16.80
2016,09,22,11,41,16.80
2016,09,22,11,42,16.80
2016,09,22,11,43,16.80
2016,09,22,11,44,16.80
2016,09,22,11,45,16.80
2016,09,22,11,46,16.80
2016,09,22,11,47,16.70
2016,09,22,11,48,16.70
2016,09,22,11,49,16.70
2016,09,22,11,50,16.80
2016,09,22,11,51,16.80
2016,09,22,11,52,16.80
2016,09,22,11,53,16.90
2016,09,22,11,54,16.90
2016,09,22,11,55,16.90
2016,09,22,11,56,16.90
2016,09,22,11,57,16.90
2016,09,22,11,58,16.90
2016,09,22,11,59,17.00
2016,09,22,12,00,17.00
2016,09,22,12,01,17.00
2016,09,22,12,02,17.00
2016,09,22,12,03,17.00
2016,09,22,12,04,17.10
2016,09,22,12,05,17.10
2016,09,22,12,06,17.00
2016,09,22,12,07,17.00
2016,09,22,12,08,17.00
2016,09,22,12,09,17.00
2016,09,22,12,10,16.90
2016,09,22,12,11,16.90
2016,09,22,12,12,16.90
2016,09,22,12,13,16.90
2016,09,22,12,14,16.90
2016,09,22,12,15,16.90
2016,09,22,12,16,17.00
2016,09,22,12,17,17.00
2016,09,22,12,18,17.00
2016,09,22,12,19,17.00
2016,09,22,12,20,17.00
2016,09,22,12,21,17.00
2016,09,22,12,22,17.00
2016,09,22,12,23,17.00
2016,09,22,12,24,17.00
2016,09,22,12,25,17.00
2016,09,22,12,26,17.00
2016,09,22,12,27,17.00
2016,09,22,12,28,17.00
2016,09,22,12,29,17.00
2016,09,22,12,30,16.90
2016,09,22,12,31,16.90
2016,09,22,12,32,16.90
2016,09,22,12,33,16.90
2016,09,22,12,34,16.90
2016,09,22,12,35,16.90
2016,09,22,12,36,16.90
2016,09,22,12,37,16.90
2016,09,22,12,38,16.90
2016,09,22,12,39,16.90
2016,09,22,12,40,16.90
2016,09,22,12,41,16.90
2016,09,22,12,42,17.00
2016,09,22,12,43,17.00
2016,09,22,12,44,17.00
2016,09,22,12,45,17.00
2016,09,22,12,46,17.00
2016,09,22,12,47,16.90
2016,09,22,12,48,16.90
2016,09,22,12,49,16.90
2016,09,22,12,50,16.90
2016,09,22,12,51,16.90
2016,09,22,12,52,16.90
2016,09,22,12,53,16.90
2016,09,22,12,54,16.90
2016,09,22,12,55,16.90
2016,09,22,12,56,17.00
2016,09,22,12,57,17.00
2016,09,22,12,58,17.00
2016,09,22,12,59,17.10
2016,09,22,13,00,17.10
2016,09,22,13,01,17.10
2016,09,22,13,02,17.10
2016,09,22,13,03,17.20
2016,09,22,13,04,17.20
2016,09,22,13,05,17.30
2016,09,22,13,06,17.30
2016,09,22,13,07,17.40
2016,09,22,13,08,17.40
2016,09,22,13,09,17.40
2016,09,22,13,10,17.30
2016,09,22,13,11,17.30
2016,09,22,13,12,17.30
2016,09,22,13,13,17.20
2016,09,22,13,14,17.20
2016,09,22,13,15,17.10
2016,09,22,13,16,17.10
2016,09,22,13,17,17.10
2016,09,22,13,18,17.20
2016,09,22,13,19,17.20
2016,09,22,13,20,17.20
2016,09,22,13,21,17.20
2016,09,22,13,22,17.10
2016,09,22,13,23,17.10
2016,09,22,13,24,17.00
2016,09,22,13,25,17.00
2016,09,22,13,26,16.90
2016,09,22,13,27,16.90
2016,09,22,13,28,16.80
2016,09,22,13,29,16.90
2016,09,22,13,30,16.90
2016,09,22,13,31,16.90
2016,09,22,13,32,16.80
2016,09,22,13,33,16.80
2016,09,22,13,34,16.80
2016,09,22,13,35,16.80
2016,09,22,13,36,16.70
2016,09,22,13,37,16.60
2016,09,22,13,38,16.60
2016,09,22,13,39,16.50
2016,09,22,13,40,16.40
2016,09,22,13,41,16.30
2016,09,22,13,42,16.20
2016,09,22,13,43,16.20
2016,09,22,13,44,16.20
2016,09,22,13,45,16.20
2016,09,22,13,46,16.10
2016,09,22,13,47,16.10
2016,09,22,13,48,16.10
2016,09,22,13,49,16.10
2016,09,22,13,50,16.20
2016,09,22,13,51,16.20
2016,09,22,13,52,16.20
2016,09,22,13,53,16.20
2016,09,22,13,54,16.20
2016,09,22,13,55,16.30
2016,09,22,13,56,16.30
2016,09,22,13,57,16.40
2016,09,22,13,58,16.50
2016,09,22,13,59,16.60
2016,09,22,14,00,16.60
2016,09,22,14,01,16.70
2016,09,22,14,02,16.70
2016,09,22,14,03,16.70
2016,09,22,14,04,16.70
2016,09,22,14,05,16.70
2016,09,22,14,06,16.70
2016,09,22,14,07,16.70
2016,09,22,14,08,16.70
2016,09,22,14,09,16.70
2016,09,22,14,10,16.70
2016,09,22,14,11,16.70
2016,09,22,14,12,16.70
2016,09,22,14,13,16.70
2016,09,22,14,14,16.70
2016,09,22,14,15,16.70
2016,09,22,14,16,16.70
2016,09,22,14,17,16.80
2016,09,22,14,18,16.80
2016,09,22,14,19,16.80
2016,09,22,14,20,16.80
2016,09,22,14,21,16.80
2016,09,22,14,22,16.80
2016,09,22,14,23,16.80
2016,09,22,14,24,16.80
2016,09,22,14,25,16.80
2016,09,22,14,26,16.80
2016,09,22,14,27,16.90
2016,09,22,14,28,17.00
2016,09,22,14,29,17.10
2016,09,22,14,30,17.20
2016,09,22,14,31,17.30
2016,09,22,14,32,17.30
2016,09,22,14,33,17.40
2016,09,22,14,34,17.40
2016,09,22,14,35,17.40
2016,09,22,14,36,17.50
2016,09,22,14,37,17.50
2016,09,22,14,38,17.60
2016,09,22,14,39,17.70
2016,09,22,14,40,17.70
2016,09,22,14,41,17.70
2016,09,22,14,42,17.80
2016,09,22,14,43,17.80
2016,09,22,14,44,17.90
2016,09,22,14,45,18.00
2016,09,22,14,46,18.00
2016,09,22,14,47,18.00
2016,09,22,14,48,17.90
2016,09,22,14,49,17.90
2016,09,22,14,50,17.80
2016,09,22,14,51,17.70
2016,09,22,14,52,17.70
2016,09,22,14,53,17.70
2016,09,22,14,54,17.60
2016,09,22,14,55,17.60
2016,09,22,14,56,17.60
2016,09,22,14,57,17.50
2016,09,22,14,58,17.60
2016,09,22,14,59,17.60
2016,09,22,15,00,17.60
2016,09,22,15,01,17.60
2016,09,22,15,02,17.60
2016,09,22,15,03,17.60
2016,09,22,15,04,17.60
2016,09,22,15,05,17.60
2016,09,22,15,06,17.60
2016,09,22,15,07,17.50
2016,09,22,15,08,17.50
2016,09,22,15,09,17.50
2016,09,22,15,10,17.50
2016,09,22,15,11,17.50
2016,09,22,15,12,17.40
2016,09,22,15,13,17.40
2016,09,22,15,14,17.40
2016,09,22,15,15,17.30
2016,09,22,15,16,17.30
2016,09,22,15,17,17.30
2016,09,22,15,18,17.30
2016,09,22,15,19,17.30
2016,09,22,15,20,17.20
2016,09,22,15,21,17.10
2016,09,22,15,22,17.10
2016,09,22,15,23,17.00
2016,09,22,15,24,17.00
2016,09,22,15,25,17.00
2016,09,22,15,26,16.90
2016,09,22,15,27,16.90
2016,09,22,15,28,16.80
2016,09,22,15,29,16.80
2016,09,22,15,30,16.80
2016,09,22,15,31,16.80
2016,09,22,15,32,16.80
2016,09,22,15,33,16.70
2016,09,22,15,34,16.70
2016,09,22,15,35,16.70
2016,09,22,15,36,16.70
2016,09,22,15,37,16.60
2016,09,22,15,38,16.60
2016,09,22,15,39,16.60
2016,09,22,15,40,16.70
2016,09,22,15,41,16.70
2016,09,22,15,42,16.70
2016,09,22,15,43,16.70
2016,09,22,15,44,16.70
2016,09,22,15,45,16.70
2016,09,22,15,46,16.60
2016,09,22,15,47,16.50
2016,09,22,15,48,16.40
2016,09,22,15,49,16.30
2016,09,22,15,50,16.20
2016,09,22,15,51,16.10
2016,09,22,15,52,16.00
2016,09,22,15,53,15.90
2016,09,22,15,54,15.80
2016,09,22,15,55,15.80
2016,09,22,15,56,15.70
2016,09,22,15,57,15.70
2016,09,22,15,58,15.70
2016,09,22,15,59,15.70
2016,09,22,16,00,15.80
2016,09,22,16,01,15.80
2016,09,22,16,02,15.90
2016,09,22,16,03,16.00
2016,09,22,16,04,16.20
2016,09,22,16,05,16.30
2016,09,22,16,06,16.50
2016,09,22,16,07,16.70
2016,09,22,16,08,16.80
2016,09,22,16,09,16.90
2016,09,22,16,10,17.00
2016,09,22,16,11,17.20
2016,09,22,16,12,17.40
2016,09,22,16,13,17.50
2016,09,22,16,14,17.70
2016,09,22,16,15,17.80
2016,09,22,16,16,17.90
2016,09,22,16,17,18.00
2016,09,22,16,18,18.00
2016,09,22,16,19,18.20
2016,09,22,16,20,18.30
2016,09,22,16,21,18.40
2016,09,22,16,22,18.50
2016,09,22,16,23,18.60
2016,09,22,16,24,18.70
2016,09,22,16,25,18.70
2016,09,22,16,26,18.80
2016,09,22,16,27,18.80
2016,09,22,16,28,18.90
2016,09,22,16,29,18.90
2016,09,22,16,30,18.90
2016,09,22,16,31,18.90
2016,09,22,16,32,18.80
2016,09,22,16,33,18.70
2016,09,22,16,34,18.70
2016,09,22,16,35,18.60
2016,09,22,16,36,18.50
2016,09,22,16,37,18.50
2016,09,22,16,38,18.50
2016,09,22,16,39,18.50
2016,09,22,16,40,18.50
2016,09,22,16,41,18.40
2016,09,22,16,42,18.40
2016,09,22,16,43,18.30
2016,09,22,16,44,18.20
2016,09,22,16,45,18.20
2016,09,22,16,46,18.10
2016,09,22,16,47,18.00
2016,09,22,16,48,18.00
2016,09,22,16,49,17.90
2016,09,22,16,50,17.80
2016,09,22,16,51,17.60
2016,09,22,16,52,17.30
2016,09,22,16,53,17.10
2016,09,22,16,54,16.80
2016,09,22,16,55,16.60
2016,09,22,16,56,16.40
2016,09,22,16,57,16.20
2016,09,22,16,58,16.20
2016,09,22,16,59,16.00
2016,09,22,17,00,16.00
2016,09,22,17,01,15.90
2016,09,22,17,02,15.90
2016,09,22,17,03,15.90
2016,09,22,17,04,15.90
2016,09,22,17,05,16.00
2016,09,22,17,06,16.10
2016,09,22,17,07,16.10
2016,09,22,17,08,16.20
2016,09,22,17,09,16.20
2016,09,22,17,10,16.20
2016,09,22,17,11,16.20
2016,09,22,17,12,16.20
2016,09,22,17,13,16.10
2016,09,22,17,14,16.10
2016,09,22,17,15,16.10
2016,09,22,17,16,16.00
2016,09,22,17,17,16.00
2016,09,22,17,18,16.00
2016,09,22,17,19,15.90
2016,09,22,17,20,15.90
2016,09,22,17,21,15.90
2016,09,22,17,22,15.90
2016,09,22,17,23,15.90
2016,09,22,17,24,15.90
2016,09,22,17,25,15.90
2016,09,22,17,26,15.90
2016,09,22,17,27,15.90
2016,09,22,17,28,15.90
2016,09,22,17,29,15.90
2016,09,22,17,30,16.00
2016,09,22,17,31,16.00
2016,09,22,17,32,16.10
2016,09,22,17,33,16.10
2016,09,22,17,34,16.10
2016,09,22,17,35,16.10